Location: Lynch Observatory
(39.9540°N, 75.1861°W)
Time: 19:20:55
(UTC-04:00)

O/OREOS (USA 219) - Visible Passes

Search period start: 23 April 2024 00:00
Search period end: 03 May 2024 00:00
Orbit: 621 x 646 km, 72.0° (Epoch: 22 May)

Date Brightness Start Highest point End Pass type
(mag) Time Alt. Az. Time Alt. Az. Time Alt. Az.
23 Apr ? 03:44:09 10° N 03:47:58 26° ENE 03:51:43 10° ESE visible
23 Apr ? 05:23:28 10° NW 05:27:18 28° WSW 05:31:07 10° SSW visible
24 Apr ? 04:05:45 10° NNW 04:10:11 58° ENE 04:14:35 10° SE visible
25 Apr ? 02:49:57 10° NNE 02:52:24 14° NE 02:54:50 10° E visible
25 Apr ? 04:27:47 10° NNW 04:32:13 60° WSW 04:36:36 10° S visible
26 Apr ? 03:10:52 10° N 03:14:48 29° ENE 03:18:42 10° ESE visible
26 Apr ? 04:50:24 10° NW 04:54:04 25° WSW 04:56:08 18° SW visible
27 Apr ? 03:32:31 10° NNW 03:37:00 65° ENE 03:38:21 42° SE visible
27 Apr ? 05:14:40 10° W 05:15:41 11° W 05:15:41 11° W visible
28 Apr ? 02:16:31 10° NNE 02:19:16 16° NE 02:21:12 13° E visible
28 Apr ? 03:54:38 10° NNW 03:58:33 50° W 03:58:33 50° W visible
29 Apr ? 02:37:35 10° N 02:41:38 32° ENE 02:41:45 32° ENE visible
29 Apr ? 04:17:20 10° NW 04:19:08 18° WNW 04:19:08 18° WNW visible
30 Apr ? 02:59:19 10° NNW 03:02:33 46° N 03:02:33 46° N visible
01 May ? 01:43:07 10° NNE 01:46:06 17° NE 01:46:06 17° NE visible
01 May ? 03:21:30 10° NW 03:23:30 25° NW 03:23:30 25° NW visible
02 May ? 02:04:20 10° N 02:07:10 29° NNE 02:07:10 29° NNE visible
02 May ? 03:44:19 10° NW 03:44:35 11° WNW 03:44:35 11° WNW visible
